Regional Weather Roundup
Issued by NWS

Home | Current Version | Previous Version | Text Only | Print | Product List | Glossary Off
Versions: 1 2 3 4 5 6 7 8 9 10 11 12 13 14 15 16 17 18 19 20 21 22 23 24 25 26 27 28

000
ASUS45 KCYS 201410
RWRWY

WYOMING REGIONAL WEATHER ROUNDUP
NATIONAL WEATHER SERVICE CHEYENNE WY
800 AM MDT FRI OCT 20 2017

NOTE:  "FAIR" INDICATES FEW OR NO CLOUDS BELOW 12,000 FEET
WITH NO SIGNIFICANT WEATHER AND/OR OBSTRUCTIONS TO VISIBILITY.

WYZ001-201500-
YELLOWSTONE NATIONAL PARK

CITY           SKY/WX    TMP DP  RH WIND       PRES   REMARKS
LK YELLOWSTONE   N/A     25  22  88 CALM      29.65F
W YELLOWSTONE  NOT AVBL

$$
WYZ002>013-054>058-071-098>099-201500-
NORTHERN WYOMING

CITY           SKY/WX    TMP DP  RH WIND       PRES   REMARKS
JACKSON        CLOUDY    29  23  78 NE5       29.62F WCI  24
CODY           FAIR      45  22  40 SE3       29.53F
GREYBULL       FAIR      43  24  47 E3        29.51F
WORLAND        FAIR      53  30  41 SE16      29.51F
SHERIDAN       FAIR      44  27  51 VRB3      29.48F
BUFFALO        FAIR      56  20  24 W9        29.53F
GILLETTE       FAIR      59  30  33 S26       29.52F
HULETT         FAIR      61  30  31 S20       29.56F
NEWCASTLE      FAIR      55  28  35 SE9       29.63S

$$
WYZ014>020-022>026-101>103-201500-
CENTRAL WYOMING

CITY           SKY/WX    TMP DP  RH WIND       PRES   REMARKS
BIG PINEY      FAIR      33  22  63 CALM      29.71F
PINEDALE       FAIR      34  27  75 CALM      29.73F
DUBOIS         FAIR      37  25  60 NW8       29.66F WCI  31
LANDER         FAIR      47  29  49 E6        29.60F
RIVERTON       FAIR      42  25  50 S7        29.62F
CASPER         FAIR      49  31  49 SW14      29.66F
DOUGLAS        FAIR      58  31  35 S10       29.67S

$$
WYZ021-027>030-104>119-201500-
SOUTHERN WYOMING

CITY           SKY/WX    TMP DP  RH WIND       PRES   REMARKS
EVANSTON       FAIR      47  30  51 SW14      29.69F
KEMMERER       FAIR      43  32  65 S8        29.72F
FORT BRIDGER   FAIR      47  29  49 SW9       29.74F
ROCK SPRINGS   FAIR      47  26  44 S15       29.73F
DIXON          PTSUNNY   56  32  40 S14G23    29.82F
RAWLINS        FAIR      49  31  49 S8        29.78F
SARATOGA       FAIR      46  30  53 S16G24    29.82F
LARAMIE        FAIR      45  28  51 SW3       29.84S
CHEYENNE       FAIR      46  31  55 SW9       29.78F
TORRINGTON     FAIR      34  30  85 CALM      29.69S
PINE BLUFFS    FAIR      32  28  86 MISG      29.76S

$$




USA.gov is the U.S. government's official web portal to all federal, state and local government web resources and services.